Temp
60 60 60 60 60 60 60 60 60 60 60 60 61 61 61 61 61 73 75 76 78 71 71 85 88 88 90 87 91 92 75 70 74 77 80 90 85 88 89 84 90 95 93 96 100
60 60 60 60 60 59 60 60 59 59 59 60 60 60 60 60 70 81 72 72 71 71 81 83 82 86 83 84 86 82 74 74 83 85 84 88 88 86 82 82 81 85 96 98 99
60 60 60 59 60 59 59 59 59 59 60 60 60 60 60 64 72 81 71 71 71 72 85 86 86 84 79 85 84 82 74 82 84 87 89 87 88 90 84 77 82 79 87 93 94
59 59 59 59 59 59 59 59 60 59 59 59 59 59 60 70 67 83 72 71 71 80 86 83 82 78 76 76 84 77 82 83 85 87 87 84 88 84 86 85 88 86 89 91 91
59 58 59 59 59 58 58 59 59 59 58 58 59 59 68 74 79 83 73 74 83 86 83 81 79 79 75 80 81 78 80 83 85 85 84 86 83 83 84 90 91 88 85 88 90
58 58 58 58 58 58 58 58 58 58 58 58 59 59 69 69 90 90 87 85 86 85 83 83 80 81 77 78 77 81 80 80 83 84 83 80 81 83 84 90 89 87 85 86 89
57 57 57 57 57 58 58 58 58 58 58 59 60 69 73 76 90 91 88 87 88 85 81 85 84 79 79 74 82 79 72 76 78 80 79 82 74 76 85 88 86 85 86 86 88
57 57 57 57 57 58 58 57 57 58 59 59 60 72 70 90 93 88 90 86 89 88 85 86 86 80 77 81 75 71 72 66 77 79 80 78 66 80 87 85 84 84 85 86 86
57 57 56 57 57 57 57 56 58 59 60 61 66 72 73 78 81 89 90 83 86 86 85 86 83 76 78 69 67 71 63 67 71 79 76 75 69 79 86 82 79 81 83 83 86
57 56 56 56 57 57 56 56 60 60 65 73 78 69 78 76 84 85 90 86 81 81 78 77 75 70 72 69 58 65 66 68 66 74 73 70 71 78 83 80 78 79 80 80 83
56 56 56 56 56 56 61 73 69 68 74 73 74 73 75 82 85 82 87 82 80 76 68 75 68 64 69 72 71 68 64 63 69 75 70 68 69 74 79 80 78 79 79 79 80
56 56 56 56 56 56 64 76 74 76 67 79 78 78 80 81 73 79 87 74 73 66 73 68 63 71 74 70 66 65 63 63 69 73 70 67 66 73 76 77 79 79 79 80 80
55 55 56 56 56 60 80 76 84 81 68 74 78 77 78 80 73 75 81 77 71 68 69 65 69 72 70 66 63 64 62 62 62 68 70 65 62 67 75 78 79 81 81 83 81
54 55 55 55 56 84 78 82 86 81 63 67 71 77 79 79 71 83 84 77 72 66 70 68 74 66 66 63 66 59 69 66 63 60 54 68 52 65 71 72 75 77 78 80 78
54 55 55 52 75 79 79 86 85 77 48 70 73 86 81 74 75 76 84 77 67 68 69 64 68 65 62 65 69 62 69 64 63 59 58 59 56 62 70 68 71 74 77 78 79
54 55 55 68 79 82 86 83 78 58 46 64 73 70 71 73 73 77 75 79 77 69 70 69 76 72 69 70 69 69 65 63 63 59 49 57 57 59 65 67 70 73 75 77 78
54 54 57 78 77 86 84 77 58 51 67 63 64 70 69 68 70 71 68 67 63 57 58 66 67 73 73 64 69 65 58 47 47 48 47 63 57 61 68 70 72 72 75 76 77
53 51 64 81 85 83 78 66 49 62 63 69 65 68 63 68 68 68 65 62 68 65 60 55 54 67 71 65 61 61 58 48 37 40 47 58 50 61 72 75 74 74 75 75 76
50 73 75 82 82 80 69 56 56 63 64 62 65 60 62 67 62 64 62 61 66 68 57 55 55 70 67 69 67 60 54 61 50 52 46 53 60 68 70 70 70 71 72 73 75
68 76 78 81 81 74 64 54 64 67 66 65 55 61 56 62 61 61 61 66 61 67 69 60 50 64 66 68 67 62 66 48 45 36 37 49 51 54 61 64 68 68 70 72 73
67 70 75 82 77 68 57 63 66 71 68 60 59 57 59 58 60 59 59 66 68 65 67 63 55 55 62 58 56 57 53 55 55 50 37 39 48 61 58 61 66 69 71 72 74
68 64 78 81 63 69 62 65 55 65 70 66 63 60 57 58 56 57 56 62 70 66 58 63 53 47 53 63 65 61 56 54 40 40 47 46 48 65 65 65 69 70 71 74 76
64 67 77 75 57 63 66 65 67 64 64 62 60 63 63 57 50 56 59 67 68 64 58 59 51 41 46 55 53 49 49 54 56 53 43 38 46 66 65 67 70 69 71 73 74
65 60 70 71 69 59 59 58 59 66 62 64 61 62 58 55 59 54 57 64 65 64 57 57 52 44 38 45 49 41 43 47 39 40 45 46 51 54 50 50 65 70 71 74 73
69 62 60 59 63 61 60 59 57 57 64 64 57 58 56 50 53 53 58 61 64 63 61 57 45 48 50 53 53 51 52 54 49 50 44 47 47 57 62 65 69 71 72 72 70
59 58 65 59 61 59 56 57 57 59 59 56 54 57 58 52 53 50 54 55 54 59 57 58 46 50 47 52 53 50 54 54 54 54 53 55 53 63 66 69 68 69 71 70 70
67 66 59 54 59 57 59 58 57 59 60 60 57 54 52 55 59 59 59 58 57 53 52 51 48 43 38 50 49 41 51 53 54 58 55 48 55 65 64 65 67 65 64 69 70
MSLP
1020.24 1019.96 1019.63 1019.27 1018.94 1018.66 1018.40 1018.16 1017.88 1017.65 1017.37 1017.06 1016.62 1016.24 1015.86 1015.49 1014.90 1013.75 1011.80 1011.35 1011.13 1011.49 1011.62 1010.33 1009.04 1008.40 1008.05 1007.10 1006.45 1006.15 1005.09 1003.29 1002.65 1002.08 1001.57 1001.63 1001.95 1003.42 1004.39 1004.19 1003.52 1002.55 1002.63 1002.69 1003.31
1020.17 1019.83 1019.51 1019.20 1018.89 1018.56 1018.26 1017.97 1017.75 1017.53 1017.25 1016.92 1016.64 1016.22 1015.82 1015.48 1014.05 1011.05 1011.33 1011.39 1011.68 1011.89 1010.90 1009.26 1008.30 1007.84 1007.10 1006.40 1005.93 1005.20 1003.99 1002.90 1002.80 1002.07 1001.42 1001.27 1001.32 1002.42 1003.92 1004.07 1004.42 1003.71 1002.81 1002.89 1003.44
1020.04 1019.68 1019.38 1019.06 1018.74 1018.40 1018.09 1017.83 1017.54 1017.27 1016.99 1016.72 1016.45 1016.06 1015.65 1015.26 1012.55 1009.75 1011.17 1011.57 1011.84 1011.80 1010.15 1009.28 1008.35 1007.34 1006.63 1005.63 1005.00 1004.53 1003.27 1002.99 1002.30 1002.05 1001.80 1001.36 1001.17 1001.77 1002.49 1003.70 1004.19 1004.56 1003.46 1003.46 1003.95
1020.01 1019.60 1019.22 1018.90 1018.57 1018.22 1017.92 1017.63 1017.31 1017.05 1016.79 1016.49 1016.15 1015.71 1015.25 1014.25 1010.15 1009.94 1011.15 1011.47 1011.59 1010.96 1009.27 1008.53 1007.99 1007.06 1006.23 1005.16 1004.68 1003.89 1003.48 1003.19 1002.74 1002.37 1001.88 1001.44 1001.70 1001.72 1001.96 1002.31 1003.59 1004.25 1004.27 1004.18 1004.13
1019.90 1019.50 1019.09 1018.69 1018.31 1017.97 1017.64 1017.32 1017.09 1016.83 1016.64 1016.40 1016.08 1015.69 1014.63 1011.66 1008.71 1010.15 1010.99 1011.19 1010.66 1009.60 1008.46 1007.70 1007.06 1006.45 1005.56 1004.72 1004.26 1003.65 1003.43 1003.10 1002.96 1002.72 1002.60 1002.29 1001.88 1002.10 1002.00 1002.26 1003.05 1004.10 1004.74 1003.94 1003.97
1019.76 1019.23 1018.82 1018.41 1018.05 1017.71 1017.35 1017.03 1016.78 1016.61 1016.36 1016.15 1015.85 1015.58 1013.83 1010.15 1008.57 1009.38 1009.73 1009.88 1009.34 1008.80 1008.17 1007.69 1006.83 1006.81 1006.07 1005.04 1004.45 1003.99 1003.63 1003.50 1003.23 1002.59 1003.06 1002.68 1002.26 1002.50 1002.11 1002.46 1002.54 1003.16 1003.98 1003.67 1003.41
1019.54 1019.04 1018.62 1018.24 1017.78 1017.37 1016.96 1016.63 1016.37 1016.16 1016.03 1015.85 1015.65 1014.81 1012.02 1009.09 1008.54 1008.97 1009.26 1008.98 1008.69 1008.69 1008.05 1007.69 1007.64 1007.33 1006.14 1005.46 1004.95 1004.71 1004.33 1003.88 1003.37 1002.99 1002.79 1002.99 1002.20 1001.63 1001.99 1002.09 1001.72 1002.52 1003.26 1003.01 1003.12
1019.34 1018.82 1018.41 1017.94 1017.53 1017.05 1016.59 1016.20 1015.93 1015.73 1015.69 1015.61 1015.50 1014.03 1010.40 1008.43 1008.71 1008.91 1008.66 1008.63 1008.63 1008.58 1008.47 1008.23 1007.97 1007.43 1006.69 1005.95 1005.45 1005.09 1004.26 1002.98 1002.14 1002.11 1002.35 1003.05 1001.10 1001.19 1001.28 1001.06 1001.31 1002.09 1002.62 1002.51 1002.97
1019.16 1018.62 1018.09 1017.65 1017.22 1016.73 1016.29 1015.82 1015.26 1015.08 1015.23 1015.37 1014.92 1012.94 1008.82 1009.47 1009.10 1008.39 1008.21 1007.95 1007.96 1008.30 1008.26 1008.30 1008.01 1007.15 1006.23 1005.86 1004.72 1003.77 1002.70 1001.85 1001.14 1001.37 1002.12 1002.23 1001.11 1001.09 1000.93 1001.51 1001.98 1002.36 1002.20 1002.51 1002.55
1018.92 1018.46 1017.93 1017.38 1016.83 1016.42 1015.96 1015.57 1015.15 1014.97 1014.75 1014.17 1012.65 1011.57 1009.06 1008.08 1008.11 1008.22 1008.11 1008.33 1008.02 1007.72 1007.76 1007.75 1007.23 1006.45 1005.56 1004.81 1003.19 1001.91 1001.58 1001.51 1001.19 1001.41 1002.17 1002.21 1001.30 1001.03 1000.54 1001.43 1001.93 1002.22 1002.36 1002.62 1002.25
1018.64 1018.09 1017.58 1017.04 1016.63 1016.06 1015.32 1014.69 1014.40 1013.28 1012.24 1010.22 1009.50 1008.89 1008.38 1008.32 1008.57 1008.23 1007.76 1007.98 1007.88 1007.64 1006.84 1006.13 1005.95 1004.84 1004.12 1003.68 1003.60 1003.53 1003.36 1002.45 1002.02 1001.90 1002.01 1002.23 1001.68 1001.00 1000.61 1000.60 1000.97 1001.43 1001.76 1002.16 1002.58
1018.29 1017.71 1017.21 1016.71 1016.29 1016.02 1015.38 1011.93 1012.13 1011.75 1010.25 1008.89 1008.81 1008.49 1008.39 1008.29 1007.69 1007.44 1007.41 1007.61 1007.20 1006.64 1005.72 1005.94 1005.02 1004.70 1004.13 1004.54 1004.76 1004.45 1003.71 1002.97 1002.55 1002.31 1002.49 1002.28 1001.72 1001.34 1000.77 1000.33 1000.41 1000.60 1000.97 1001.54 1002.45
1017.97 1017.38 1016.88 1016.48 1016.15 1015.43 1012.55 1012.17 1011.65 1011.27 1009.89 1007.76 1007.80 1007.47 1007.45 1007.88 1007.14 1006.49 1006.95 1006.99 1006.53 1005.97 1005.40 1004.86 1004.11 1004.44 1004.39 1004.78 1004.72 1004.17 1003.64 1003.20 1002.88 1002.59 1002.52 1002.60 1001.40 1000.71 999.80 999.34 999.78 999.99 1000.31 1000.58 1001.26
1017.67 1016.95 1016.39 1016.20 1016.25 1012.44 1011.56 1011.74 1011.27 1011.44 1008.92 1006.70 1006.88 1006.47 1006.93 1007.02 1006.43 1006.37 1006.46 1006.50 1005.99 1005.52 1004.97 1004.35 1004.23 1004.59 1004.75 1004.64 1004.48 1003.79 1003.66 1003.43 1003.30 1003.62 1002.42 1001.88 999.91 999.50 999.12 998.99 999.19 999.50 1000.07 1000.48 1001.48
1017.51 1016.76 1016.06 1016.03 1013.87 1011.62 1011.91 1011.64 1011.38 1011.37 1007.75 1006.22 1005.71 1005.99 1005.85 1006.21 1005.72 1005.78 1006.23 1006.23 1005.80 1005.26 1005.13 1004.36 1003.73 1004.44 1004.50 1004.19 1004.26 1004.04 1004.09 1004.31 1004.12 1003.61 1003.03 1002.01 1000.79 999.02 998.54 997.98 998.58 999.37 999.87 1000.72 1001.63
1017.29 1016.71 1016.19 1014.66 1013.20 1011.97 1011.71 1011.72 1011.58 1009.89 1006.62 1005.58 1005.56 1005.72 1005.68 1005.62 1005.63 1005.58 1005.91 1006.29 1006.02 1005.38 1004.80 1004.05 1003.99 1003.76 1003.85 1004.03 1004.31 1004.87 1004.56 1004.68 1004.28 1003.50 1002.05 1000.81 1000.05 998.32 997.64 997.59 998.70 999.93 1000.59 1000.95 1001.60
1017.16 1016.43 1016.26 1013.78 1011.82 1011.81 1011.69 1011.17 1009.72 1007.54 1006.31 1005.36 1005.42 1005.40 1005.33 1004.87 1004.77 1005.06 1005.18 1005.08 1005.03 1004.64 1003.86 1003.24 1002.83 1002.96 1003.29 1003.76 1004.11 1004.71 1004.84 1003.83 1002.93 1001.60 1000.06 998.97 998.78 998.00 997.99 998.65 998.80 999.66 1000.47 1001.27 1001.75
1016.75 1016.27 1014.50 1013.17 1012.39 1012.16 1011.54 1010.40 1008.39 1006.11 1005.69 1006.01 1006.44 1005.83 1005.36 1004.98 1004.47 1004.59 1004.83 1004.56 1004.55 1004.43 1003.75 1003.10 1001.95 1001.57 1002.19 1003.19 1003.74 1003.42 1004.13 1003.64 1002.51 1001.75 1000.44 999.95 999.02 997.96 998.19 998.62 999.95 1000.65 1000.99 1001.35 1001.90
1015.98 1014.49 1013.38 1012.24 1012.59 1012.35 1011.11 1008.91 1007.10 1006.34 1007.13 1006.96 1006.56 1005.69 1004.93 1004.53 1005.43 1005.07 1004.85 1004.54 1004.22 1003.95 1003.54 1003.24 1002.45 1002.28 1003.05 1003.49 1003.72 1003.46 1003.46 1003.89 1003.77 1003.32 1002.22 1000.56 998.80 997.87 998.52 999.15 1000.15 1000.85 1001.18 1001.41 1001.65
1015.38 1012.86 1011.66 1012.14 1012.52 1012.11 1010.42 1008.34 1007.12 1007.30 1007.81 1007.60 1006.99 1006.22 1005.47 1004.89 1004.99 1005.10 1004.58 1004.25 1004.68 1004.86 1004.56 1004.44 1003.64 1003.43 1003.12 1003.75 1003.98 1004.05 1004.25 1004.37 1005.85 1003.85 1002.10 1000.65 999.16 997.65 997.37 999.15 999.90 1000.28 1000.88 1001.17 1001.67
1015.26 1012.15 1011.99 1012.05 1012.47 1011.17 1009.35 1007.70 1007.26 1007.63 1008.17 1008.05 1007.42 1006.94 1006.49 1006.16 1005.94 1005.29 1004.90 1004.52 1004.41 1004.87 1005.26 1005.18 1004.98 1004.32 1003.81 1003.67 1003.50 1003.81 1004.15 1004.61 1004.26 1003.96 1003.45 1001.82 1000.10 999.70 999.87 1000.53 1000.04 999.92 1000.17 1000.83 1001.16
1014.53 1011.66 1011.65 1011.80 1011.26 1009.38 1008.60 1008.06 1008.76 1008.24 1008.07 1007.92 1008.00 1007.82 1007.49 1007.18 1006.53 1005.79 1005.21 1004.73 1004.63 1005.42 1005.51 1005.39 1005.86 1005.11 1003.99 1003.70 1004.19 1004.45 1004.09 1004.81 1005.03 1004.73 1003.67 1002.75 1000.57 1000.82 1000.40 1000.68 1000.41 1000.04 1000.05 1000.34 1000.29
1014.75 1012.43 1011.67 1011.64 1010.21 1008.92 1008.63 1008.51 1008.30 1008.14 1008.23 1007.98 1007.84 1007.92 1007.92 1007.60 1007.31 1006.18 1005.56 1005.26 1005.42 1005.87 1005.99 1006.71 1006.39 1005.64 1004.84 1004.22 1004.90 1005.42 1005.73 1005.05 1004.55 1004.36 1003.76 1003.27 1001.09 1000.53 1000.61 1000.56 1000.04 999.82 999.75 999.92 999.99
1015.25 1012.46 1010.85 1010.89 1011.00 1010.71 1009.63 1009.06 1008.57 1008.44 1008.72 1008.59 1008.45 1008.55 1008.41 1007.92 1007.54 1006.65 1006.02 1005.52 1005.84 1006.36 1007.44 1008.02 1007.47 1007.16 1006.32 1005.57 1005.80 1006.40 1006.52 1006.15 1007.06 1004.67 1003.35 1002.53 1001.50 1001.21 1001.84 1001.70 1000.11 998.78 999.43 998.97 999.40
1015.22 1013.43 1013.53 1011.32 1010.52 1010.84 1010.57 1009.81 1008.96 1008.46 1008.65 1008.83 1008.78 1008.52 1008.50 1008.18 1007.54 1006.86 1006.45 1005.85 1005.68 1006.06 1006.94 1007.71 1007.48 1007.43 1006.76 1006.08 1005.43 1005.04 1004.10 1003.87 1003.76 1003.72 1002.84 1002.44 1001.86 1000.85 1000.11 999.05 998.38 998.60 998.36 998.42 998.94
1016.08 1015.21 1013.94 1012.97 1011.94 1011.28 1010.31 1009.74 1009.21 1009.04 1009.35 1009.05 1008.98 1009.00 1008.87 1008.66 1008.48 1007.76 1007.60 1007.10 1006.83 1006.95 1007.19 1007.54 1007.20 1007.38 1006.47 1005.86 1004.89 1003.76 1003.04 1002.54 1002.19 1001.79 1001.44 1001.02 1000.06 1000.04 999.39 998.59 998.08 997.89 997.38 998.04 998.28
1016.84 1016.44 1015.90 1013.60 1011.95 1011.16 1010.13 1009.90 1009.89 1010.01 1009.70 1009.81 1009.74 1009.67 1009.43 1009.23 1009.08 1008.85 1008.53 1008.14 1008.05 1007.93 1007.80 1007.74 1007.80 1007.83 1006.83 1005.75 1004.53 1003.38 1001.98 1001.37 1001.01 1000.63 1000.37 999.89 999.53 998.79 998.21 998.38 997.76 998.23 998.42 998.34 998.17
Wind_Speed
14 15 14 14 14 13 14 13 14 14 13 14 14 15 15 16 17 14 11 6 4 8 7 14 11 12 15 18 21 20 18 20 25 24 19 15 14 13 13 16 26 9 7 7 8
14 14 14 14 14 14 14 14 14 13 14 13 14 14 15 15 16 14 9 7 4 3 12 11 13 14 14 17 19 21 18 26 24 21 21 21 19 14 12 14 21 24 15 4 10
16 15 14 14 14 13 13 13 13 13 13 13 13 15 14 15 15 10 9 8 8 9 13 9 10 10 17 19 19 21 24 23 21 23 24 24 24 12 16 13 15 20 27 13 12
17 17 16 15 15 15 14 13 13 12 12 12 13 15 16 14 3 11 11 8 8 13 9 6 11 14 17 19 20 24 25 22 22 25 25 22 19 21 22 18 16 12 25 21 17
18 17 17 16 15 15 14 14 12 11 11 11 12 13 12 10 6 15 11 9 11 10 6 4 9 10 16 15 18 21 21 20 22 19 23 23 22 23 24 16 11 10 18 28 19
18 18 18 17 16 15 13 13 12 11 12 11 11 11 12 14 9 14 11 9 10 9 2 7 4 8 11 15 13 16 13 18 22 21 19 23 23 22 26 21 21 17 19 27 23
17 18 18 17 17 16 14 13 12 12 11 10 10 10 12 5 3 7 8 10 3 6 9 5 7 10 7 11 15 13 17 18 19 18 21 19 26 28 24 23 22 18 19 21 16
18 16 17 17 17 16 15 14 13 13 11 10 9 12 12 5 7 8 9 8 7 7 8 8 8 12 13 13 9 16 18 19 20 23 22 19 25 25 25 23 24 15 18 16 20
19 18 16 16 16 15 15 17 11 8 9 8 9 12 9 8 11 12 9 9 8 8 7 7 11 14 14 12 15 18 16 18 20 5 8 18 25 19 22 11 12 14 16 15 21
19 18 18 17 14 14 14 13 2 10 9 10 10 8 9 11 10 6 7 7 8 8 10 11 11 13 14 14 14 12 15 13 11 8 14 17 20 19 13 13 15 15 15 16 16
21 19 17 15 15 11 11 6 9 9 11 13 1 9 2 2 4 10 9 10 10 10 14 15 11 14 16 13 12 14 16 16 16 8 10 13 19 19 18 18 16 16 16 15 15
21 19 18 16 15 12 9 6 6 7 11 10 9 9 6 3 7 12 10 12 13 14 14 9 14 16 14 8 11 15 17 17 16 14 13 16 20 20 20 20 19 18 18 17 17
20 19 17 15 13 8 5 5 7 5 9 9 7 10 10 12 12 7 13 14 15 14 15 15 17 6 11 12 14 16 16 16 17 15 15 16 25 25 24 28 24 24 21 20 20
20 17 13 13 5 1 3 5 7 3 8 15 11 9 8 9 12 11 9 15 12 15 15 12 15 4 12 14 14 16 14 15 10 14 14 17 17 18 18 13 14 13 12 13 5
21 19 12 5 13 6 8 8 6 5 8 10 11 8 5 13 5 14 10 13 17 18 12 16 13 10 15 15 13 16 17 10 15 17 19 21 15 16 20 17 9 9 11 13 13
21 20 14 7 9 4 7 5 6 9 6 8 5 8 14 15 14 9 9 14 15 19 19 23 19 16 16 15 12 13 13 15 18 17 18 22 19 18 16 15 13 9 8 7 6
23 17 10 9 7 8 7 8 9 9 5 5 6 10 12 13 12 14 15 17 16 18 19 22 23 23 21 18 18 13 15 14 17 16 17 18 7 12 6 5 2 15 11 8 6
23 14 9 10 7 6 7 10 12 5 6 6 7 12 15 15 15 12 15 16 17 20 17 18 19 17 17 15 19 17 16 13 18 17 18 4 8 8 7 12 8 6 9 5 9
24 7 9 5 6 5 9 10 11 10 5 8 12 16 17 11 4 10 13 17 18 18 17 16 20 11 5 11 14 17 18 19 15 19 18 21 27 25 15 12 8 10 10 10 7
7 6 8 5 3 7 10 12 14 1 8 10 14 10 14 12 9 13 13 8 4 11 12 16 19 17 13 13 16 18 17 15 7 14 21 19 22 15 18 15 15 13 10 10 5
7 5 7 2 4 8 9 12 8 8 8 8 12 15 16 15 17 18 17 16 10 10 12 13 16 19 18 19 20 15 17 20 19 15 15 17 13 14 11 3 9 11 7 6 13
5 5 5 3 8 5 8 7 3 12 13 15 13 16 16 16 19 20 21 20 8 10 15 14 7 16 21 18 17 16 22 18 11 11 14 17 18 6 1 7 11 7 7 13 12
7 7 5 4 6 6 10 12 13 12 13 8 10 11 11 14 13 14 14 13 10 13 11 9 9 14 18 19 7 14 18 19 19 18 22 17 20 14 14 18 10 12 10 12 13
5 5 4 6 2 6 10 14 9 5 10 13 11 14 15 17 17 15 18 14 6 10 9 8 15 20 17 22 11 9 13 15 12 13 19 20 24 11 14 15 30 11 16 12 11
1 2 4 6 6 8 10 13 16 13 6 9 8 12 12 13 15 17 19 18 15 11 7 12 19 21 22 25 24 26 26 24 23 22 20 19 25 20 24 22 17 19 19 15 11
5 5 3 12 12 11 9 11 14 12 12 16 16 15 14 16 18 20 21 18 17 17 19 16 18 20 24 24 25 25 26 23 25 24 24 26 28 25 28 24 20 21 18 13 13
3 2 5 9 10 9 10 11 14 16 10 8 10 13 15 16 17 18 19 18 17 17 16 15 11 13 17 19 16 15 21 22 20 20 21 22 23 22 19 21 18 6 10 17 13
Wind_Direction
340 338 337 336 333 330 327 325 321 319 317 313 314 314 312 312 300 246 264 58 34 358 273 269 255 245 231 244 239 234 245 248 248 251 251 253 214 202 248 220 285 253 279 335 336
338 336 333 333 330 330 327 323 319 314 311 310 309 310 309 315 292 257 101 124 140 279 240 232 232 226 233 229 232 229 238 244 254 261 263 260 251 203 206 240 218 287 257 194 348
335 334 332 332 329 323 320 321 316 312 309 309 308 305 306 304 260 96 123 155 209 246 258 271 275 247 241 237 229 226 243 255 254 253 260 267 260 249 216 222 247 214 273 319 315
334 333 332 329 327 325 323 317 311 306 304 305 307 305 307 274 308 99 143 175 212 265 247 227 233 232 239 237 228 250 246 257 265 269 271 268 274 267 262 236 209 258 236 268 295
332 329 326 326 324 322 319 316 309 302 297 295 295 303 291 224 239 126 154 181 223 240 276 262 248 241 249 250 250 242 256 261 266 258 276 275 251 255 261 256 224 235 257 247 259
330 329 327 324 323 320 317 312 306 300 293 288 289 299 250 258 90 138 195 183 258 245 254 275 318 339 293 273 260 272 261 268 258 255 255 257 260 262 256 261 251 224 248 258 236
328 327 327 323 321 320 316 311 300 291 282 283 288 279 264 284 164 157 190 226 229 267 267 220 293 268 318 270 252 264 271 260 255 261 252 258 257 250 255 260 252 232 241 252 235
328 328 325 322 321 318 314 307 293 277 265 265 270 265 265 180 197 206 217 234 224 243 266 297 268 276 279 277 258 251 250 256 246 231 235 238 257 252 246 245 246 243 250 244 221
329 326 321 321 319 316 314 306 286 242 228 223 234 229 257 111 213 220 220 241 185 228 240 272 258 256 261 245 250 227 252 255 243 176 258 249 255 258 253 218 243 255 256 250 251
329 325 320 315 312 312 309 297 166 160 197 205 260 251 238 206 194 231 217 256 247 243 237 228 238 242 228 242 255 288 248 223 268 226 196 250 256 251 251 207 238 246 237 251 247
330 324 318 311 306 303 297 200 204 194 206 269 100 264 291 173 219 227 223 218 236 241 256 217 251 240 251 254 285 316 290 285 288 269 273 263 273 272 258 242 233 238 240 244 242
333 327 320 309 304 302 272 289 32 331 293 205 247 253 273 242 251 223 206 233 220 251 231 250 244 257 276 290 274 266 267 266 266 263 271 279 273 274 272 264 256 249 248 225 228
334 328 321 311 313 273 286 23 308 308 259 166 214 221 204 210 243 254 199 226 255 254 253 258 283 4 275 243 243 252 261 276 283 299 288 285 268 255 250 237 245 242 241 242 212
332 328 321 319 286 187 197 335 301 326 269 151 189 198 190 222 234 234 209 240 245 260 281 265 288 233 253 241 259 271 277 284 267 274 267 280 290 284 285 232 215 239 220 236 177
336 328 316 269 318 252 3 316 322 239 275 141 142 90 195 219 33 199 223 242 254 275 243 262 239 223 250 260 270 285 300 284 275 272 280 267 263 270 253 246 246 231 196 197 185
340 334 320 212 237 354 306 303 237 235 251 160 181 214 219 215 242 247 202 227 273 278 269 268 263 256 252 281 284 286 281 261 259 253 252 257 251 264 262 199 168 180 183 208 201
335 329 289 310 327 339 307 232 241 251 92 190 232 218 247 266 254 231 245 253 240 253 245 240 241 242 241 245 253 230 257 263 256 241 245 250 248 273 355 73 298 169 204 206 228
325 311 214 278 306 305 266 239 257 303 306 107 287 278 265 271 268 254 262 259 255 255 271 281 278 273 219 219 268 258 243 272 284 286 296 346 246 251 247 185 165 300 269 225 222
312 213 248 207 294 282 259 241 258 339 18 311 303 269 264 249 248 292 259 267 277 289 264 261 271 294 352 273 243 263 271 261 291 269 270 278 284 282 172 171 198 212 205 214 229
302 255 250 111 286 263 251 261 297 82 298 286 280 291 287 295 248 239 269 281 283 295 304 286 286 276 282 241 270 265 277 273 246 263 263 259 259 270 196 188 190 199 207 229 250
267 252 95 58 241 242 254 277 322 308 312 276 278 286 285 290 286 284 285 284 238 247 281 267 276 277 273 258 250 247 240 253 260 246 254 274 286 67 65 49 224 199 206 250 263
290 261 107 199 255 248 270 357 357 287 274 266 259 272 276 283 281 280 279 279 265 230 272 280 294 277 282 283 272 242 269 231 244 262 271 277 271 189 27 240 223 218 229 260 285
310 291 134 263 272 317 327 299 292 277 288 277 269 279 285 285 285 276 280 292 293 301 297 327 257 278 281 269 354 321 320 306 277 249 250 260 262 270 185 206 220 228 255 276 285
295 295 184 207 293 301 320 301 293 297 285 276 279 287 282 274 265 267 274 274 273 278 64 327 275 273 277 286 277 232 218 258 289 270 266 258 267 251 265 288 274 270 246 283 292
282 23 360 304 292 312 297 295 294 302 270 280 278 273 274 285 294 295 296 290 276 264 246 265 267 272 276 273 272 270 264 251 239 259 260 266 281 266 269 278 283 285 280 274 275
314 336 332 286 276 279 277 274 307 311 321 293 294 294 292 289 295 299 292 287 290 296 285 276 272 275 279 281 279 274 270 278 277 277 270 263 254 265 266 271 279 299 269 267 259
24 212 278 285 264 269 285 317 308 309 295 287 291 294 287 297 310 306 299 290 281 279 285 287 275 272 279 285 284 279 260 264 274 270 266 255 260 264 273 268 274 308 281 284 307